Regional Weather Roundup
Issued by NWS Upton, NY

Current Version | Previous Version | Graphics & Text | Print | Product List | Glossary Off
Versions: 1 2 3 4 5 6 7 8 9 10 11 12 13 14 15 16 17 18 19 20 21 22 23 24 25 26 27 28 29 30 31 32 33 34 35 36 37 38 39 40 41 42 43 44 45 46 47 48 49 50

000
ASUS41 KOKX 240805
RWROKX

REGIONAL WEATHER ROUNDUP
NATIONAL WEATHER SERVICE NEW YORK NY
400 AM EDT SUN JUL 24 2016

NOTE: "FAIR" INDICATES FEW OR NO CLOUDS BELOW 12,000 FEET WITH NO
SIGNIFICANT WEATHER AND/OR OBSTRUCTIONS TO VISIBILITY.

NYZ071-072-176-178-NJZ106-104-240900-
NEW YORK CITY METRO AREA

CITY           SKY/WX    TMP DP  RH WIND       PRES   REMARKS
Central Park   CLEAR     79  60  52 NE5       29.97R
LaGuardia APRT CLEAR     79  61  53 NE7       29.93R
Kennedy INTL   CLEAR     76  58  53 NE5       29.94S
Newark/Liberty CLEAR     78  61  55 CALM      29.93S
BRNX BOT. GARD   N/A     73  57  56 W1        29.94F
Wall St Helipt SUNNY     79  63  57 NE5       29.94S
Teterboro      CLEAR     76  59  55 CALM      29.93R
$$

NYZ177-179-078>081-240900-
LONG ISLAND NEW YORK

CITY           SKY/WX    TMP DP  RH WIND       PRES   REMARKS
FARMINGDALE    CLEAR     73  59  61 N6        29.94S
ISLIP          CLEAR     72  59  63 NW5       29.93S
SHIRLEY        CLEAR     67  60  78 CALM      29.94S
RIVERHEAD      NOT AVBL
WESTHAMPTON    CLEAR     63  57  81 NW3       29.95S
SOUTHAMPTON      N/A     68  64  88 CALM      29.89S
BRIDGEHAMPTON    N/A     70  63  78 CALM      29.92S
EAST HAMPTON   FAIR      64  60  85 CALM      29.92S
MONTAUK POINT    N/A     66  61  84 CALM      29.93S
$$

NYZ052-065-067-240900-
HUDSON VALLEY

CITY           SKY/WX    TMP DP  RH WIND       PRES   REMARKS
WHITE PLAINS   CLEAR     68  59  73 CALM      29.95R
NEWBURGH       CLEAR     73  61  64 CALM      29.98S
MONTGOMERY     CLEAR     62  60  93 CALM      29.97S
POUGHKEEPSIE   CLEAR     65  60  84 CALM      29.96R
ALBANY         PTCLDY    61  59  93 CALM      29.97S
$$

NJZ001-105-106-008-010-013-015-019>022-104-240900-
NEW JERSEY

CITY           SKY/WX    TMP DP  RH WIND       PRES   REMARKS
NEWARK/LIBERTY CLEAR     78  61  55 CALM      29.93S
TETERBORO      CLEAR     76  59  55 CALM      29.93R
CALDWELL       CLEAR     70  61  73 CALM      29.95S
MORRISTOWN     CLEAR     61  57  88 CALM      29.95S
SOMERVILLE     CLEAR     65  62  90 CALM      29.94R
SUSSEX         CLEAR     61  60  97 SW3       29.97S
ANDOVER          N/A     62  60  93 S3        29.98S
TRENTON        CLEAR     71  66  84 CALM      29.94S
MILLVILLE      CLEAR     71  69  93 CALM      29.94S
ATLANTIC CITY  CLEAR     70  67  90 N3        29.93S
WRIGHTSTOWN    NOT AVBL
TOMS RIVER     CLEAR     66  64  93 CALM      29.94S
BELMAR         CLEAR     73  65  75 CALM      29.95R
$$

PAZ047>061-062-071-240900-
EASTERN PENNSYLVANIA

CITY           SKY/WX    TMP DP  RH WIND       PRES   REMARKS
PHILADELPHIA   PTCLDY    76  68  76 CALM      29.94S
ALLENTOWN      CLEAR     68  60  75 W3        29.96F
SCRANTON       CLEAR     67  57  70 VRB5      30.01R
$$

CTZ002-004>006-009-010-012-RIZ004-006-007-MAZ004-011-015-240900-
SOUTHERN NEW ENGLAND
 IN CT

CITY           SKY/WX    TMP DP  RH WIND       PRES   REMARKS
BRADLEY INTL   CLEAR     65  59  81 N8        29.93S
HARTFORD       CLEAR     70  60  70 CALM      29.93S
DANBURY        CLEAR     64  58  80 SW3       29.97S
WTRBRY/OXFORD    N/A     66  55  68 NW3       29.97R
BRIDGEPORT     CLEAR     75  59  57 N7        29.93S
MERIDEN        CLEAR     68  59  73 CALM      29.93S
NEW HAVEN      CLEAR     70  59  68 W3        29.93S
CHESTER        FAIR      70  61  73 CALM      29.94S
GROTON         CLEAR     71  59  65 N6        29.91F
WILLIMANTIC    NOT AVBL

 IN RI

CITY           SKY/WX    TMP DP  RH WIND       PRES   REMARKS
PROVIDENCE     CLEAR     72  57  59 NW10      29.90F
BLOCK ISLAND   CLEAR     71  59  65 NW6       29.92F
WESTERLY       CLEAR     69  57  65 CALM      29.92S

 IN MA

CITY           SKY/WX    TMP DP  RH WIND       PRES   REMARKS
BOSTON         CLEAR     70  58  65 NW10      29.89S
WORCESTER      CLEAR     65  57  75 NW14      29.95S
WESTFIELD      CLEAR     62  59  90 CALM      29.93F
PROVINCETOWN   CLEAR     67  63  87 NW9       29.88S
NANTUCKET      CLEAR     70  59  68 NW15      29.88S
$$

ANZ330-335-338-340-345-350-353-355-240900-
COASTAL MARINE OBSERVATIONS


STATION/POSITION TIME  SKY/WX   TEMP    WIND        PRES    VSBY  WAVE
                                AIR SEA DIR/SP/G                  HT/PER
                 (UTC)          (F)     (DEG/KT/KT) (MB)    (MI)  (FT/S)
NY HARB ENTRANCE 0650            76 73   50/  6/  6 1013.3          2/ 6
20S FIRE ISLAND  0650            76 74  360/  6/  6 1013.1          3/ 6
GREAT SOUTH BAY  0715            77 80  350/  8/  8   N/A
23 SSW MONTAUK P 0650            73 71  330/  2/  2 1013.6          3/ 7
15 E BARNEGAT LI 0722               75                N/A           2/ 6
HUDSON CANYON    0650            78 77              1012.8          3/ 7
KINGS POINT      0700            75 72              1013.5
EXECUTION ROCKS  0700            74      80/  2/  2   N/A
CENTRAL LI SOUND 0700            75 72  260/  4/  4   N/A           0
EASTERN LI SOUND 0700            70 68  290/  4/  4   N/A
ROBBINS REEF     0706            81     320/  5/  6 1012.9
$$


>>>>>>>>>>>>>>>>>>>>>>>>>>>> KEY <<<<<<<<<<<<<<<<<<<<<<<<<<<
>                                                          <
>     SKY/WX - SKY CONDITION/PRESENT WEATHER               <
>     TMP    - TEMPERATURE IN FAHRENHEIT                   <
>     DP     - DEWPOINT IN FAHRENHEIT                      <
>     RH     - RELATIVE HUMIDITY IN PERCENT                <
>     WIND   - DIRECTION AND SPEED IN MPH                  <
>     PRES   - MEAN SEA LEVEL PRESSURE IN INCHES OF HG     <
>     WCI    - WIND CHILL INDEX                            <
>     VSB    - VISIBILITY IN MILES                         <
>     HX     - HEAT INDEX                                  <
>     TC     - TEMPERATURE IN CELSIUS                      <
>     VRB    - VARIABLE WIND DIRECTION                     <
>                                                          <
>>>>>>>>>>>>>>>>>>>>>>>>>>>> KEY <<<<<<<<<<<<<<<<<<<<<<<<<<<





USA.gov is the U.S. government's official web portal to all federal, state and local government web resources and services.